[[{"header":{"parameterUnit":"m.s-1","parameterCategory":2,"la1":30.2991,"la2":30.254,"lo1":-89.0895,"lo2":-89.0444,"dy":0.0017,"dx":0.0017,"nx":28,"ny":28,"refTime":"2023-08-15T03:00:00:Z","depth":"0","parameterNumber":2,"parameterNumberName":"U-component_of_CURRENTS"},"data":[0,0,0,0,0,0,0,0,0,0,0,0,0,0,0,0,0,0,0,0,0,0,0,0,0,0,0,0,0,0,0,0,0,0,0,0,0,0,0,0,0,0,0,0,0,0,0,0,0,0,0,0,0,0,0,0,0,0,0.3866,0.3866,0,0.388,0.3881,0.3882,0.3829,0.3827,0.3825,0.3823,0.3953,0.3958,0.3964,0,0,0,0,0,0,0,0,0,0,0,0,0,0.379,0.3792,0.3866,0.3866,0.3865,0.388,0.3881,0.3882,0.383,0.3827,0.3824,0.3822,0.3951,0.3958,0.3964,0,0,0,0,0,0,0,0,0,0,0,0,0,0.3822,0.3793,0.3866,0.3836,0.3832,0.388,0.3881,0.3882,0.383,0.3827,0.3824,0.3821,0.3949,0.3957,0.3965,0.4083,0,0,0.3991,0.3994,0,0,0,0,0,0,0,0,0.382,0.3826,0.3841,0.3838,0.3834,0.3843,0.3901,0.3953,0.3831,0.3839,0.3823,0.3819,0.3925,0.3935,0.3954,0.4089,0.4095,0.3991,0.3996,0.4,0.4002,0,0,0,0,0,0,0,0.3818,0.3825,0.3879,0.384,0.3836,0.3819,0.3821,0.3911,0.3908,0.3838,0.3832,0.3824,0.3924,0.3946,0.3956,0.4097,0.3991,0.3998,0.4004,0.4007,0.4394,0.4399,0,0,0,0,0,0,0.3807,0.3824,0.3878,0.3879,0.3811,0.3823,0.3825,0.385,0.3905,0.3907,0.3826,0.3821,0.3933,0.3947,0.3961,0.4113,0.4,0.4008,0.4012,0.4389,0.4395,0.4401,0,0,0,0,0,0,0.3806,0.3813,0.3878,0.3843,0.3849,0.3827,0.3855,0.3851,0.3879,0.3893,0.3898,0.3856,0.3931,0.3949,0.4074,0.4117,0.4011,0.4019,0.4382,0.4391,0.4398,0.4413,0,0,0,0,0,0,0.3804,0.3814,0.3875,0.3844,0.385,0.3972,0.3858,0.3854,0.3874,0.3868,0.3922,0.3929,0.393,0.4062,0.4083,0.4127,0.4025,0.4376,0.4386,0.4395,0.4406,0.4421,0.4433,0,0,0,0,0,0.3802,0.3925,0.3879,0.3886,0.3921,0.3977,0.3984,0.3957,0.3879,0.3956,0.396,0.3927,0.4139,0.4074,0.4097,0.4144,0.4371,0.4383,0.4395,0.44,0.4418,0.4433,0,0,0,0,0,0,0.3962,0.3928,0.3878,0.3992,0.3996,0.3966,0.4026,0.398,0.404,0.4014,0.4005,0.402,0.4132,0.4174,0.4102,0.4295,0.4248,0.4265,0.4245,0.4262,0.4276,0.4306,0.4032,0,0,0,0,0,0.401,0.4074,0.403,0.4128,0.4116,0.4062,0.4085,0.4052,0.4068,0.4086,0.4112,0.4152,0.4206,0.4258,0.4325,0.4457,0.4481,0.4507,0.4521,0.4531,0.4581,0.4663,0.4687,0.444,0.444,0.444,0,0,0.4093,0.4088,0.4123,0.4162,0.4137,0.4176,0.4073,0.4112,0.4165,0.41,0.4212,0.4205,0.4253,0.4366,0.4424,0.4403,0.4611,0.4547,0.4554,0.4599,0.4678,0.4701,0.4722,0.4448,0.4447,0.4445,0,0,0.4254,0.4274,0.4339,0.435,0.4326,0.4303,0.4315,0.429,0.4306,0.441,0.4338,0.4373,0.4508,0.4514,0.4537,0.4695,0.467,0.4713,0.4815,0.4893,0.4912,0.493,0.4948,0.4967,0.473,0.473,0.473,0,0.4346,0.4399,0.4383,0.443,0.4428,0.4357,0.4394,0.4446,0.448,0.4489,0.4474,0.4557,0.4582,0.4653,0.4698,0.4719,0.4747,0.4721,0.4903,0.4922,0.4939,0.4954,0.4975,0.4732,0.4732,0.4732,0.4731,0,0.4497,0.4546,0.4591,0.46,0.464,0.4671,0.4669,0.4718,0.4695,0.4702,0.4774,0.4793,0.4826,0.4834,0.4823,0.4938,0.4907,0.4886,0.4836,0.4964,0.4973,0.4993,0.4735,0.4734,0.4734,0.4733,0,0,0.4641,0.4674,0.4684,0.4657,0.4696,0.4711,0.4826,0.4859,0.4872,0.4952,0.4978,0.5068,0.501,0.504,0.4991,0.5072,0.5184,0.5051,0.5054,0.5026,0.5329,0.5107,0.5107,0.5186,0.5191,0.5196,0.5265,0,0.4718,0.4788,0.4813,0.4872,0.4862,0.4854,0.495,0.4993,0.5028,0.5076,0.5086,0.5123,0.5113,0.5077,0.517,0.5161,0.5252,0.5166,0.5253,0.5255,0.5006,0.513,0.4823,0.4844,0.5285,0.5289,0.5291,0,0.4793,0.4821,0.4867,0.4871,0.4867,0.4928,0.4946,0.5031,0.5115,0.5143,0.5193,0.5191,0.5277,0.5253,0.5391,0.5334,0.5376,0.5391,0.5393,0.5208,0.5075,0.4807,0.4866,0.4861,0.5324,0.5321,0.5319,0,0.4755,0.483,0.4838,0.4851,0.4896,0.4914,0.4946,0.5028,0.5058,0.5169,0.5171,0.5292,0.5288,0.5424,0.5471,0.5445,0.5616,0.5561,0.5411,0.5392,0.5165,0.5117,0.5197,0.5726,0.5726,0.5726,0.5726,0,0.4759,0.4761,0.481,0.4807,0.4814,0.487,0.4886,0.4955,0.5027,0.5042,0.5176,0.5189,0.5345,0.5429,0.5518,0.5517,0.5661,0.5467,0.5421,0.5156,0.5109,0.512,0.5172,0.5729,0.5728,0.5728,0.5727,0,0.4675,0.4717,0.4716,0.4769,0.4778,0.4779,0.4813,0.4825,0.4926,0.4945,0.4974,0.512,0.5228,0.5364,0.5532,0.5494,0.5403,0.5545,0.5189,0.5099,0.4858,0.4921,0.4643,0.4534,0.5353,0.5348,0.5344,0,0.462,0.462,0.4654,0.4651,0.4667,0.4673,0.4668,0.4761,0.4773,0.4878,0.487,0.4993,0.503,0.5177,0.5188,0.5271,0.5255,0.5003,0.4901,0.4838,0.488,0.4622,0.4536,0.4602,0.4592,0.4584,0.4578,0,0.4528,0.4547,0.4548,0.4535,0.453,0.4495,0.4502,0.4484,0.4573,0.4593,0.4621,0.4666,0.4766,0.4697,0.4785,0.4794,0.4722,0.4831,0.4895,0.4421,0.4025,0.3896,0.4547,0.4507,0.4514,0.4519,0.4523,0.4526,0.4442,0.4425,0.4426,0.4388,0.4376,0.4286,0.4186,0.4203,0.4158,0.4109,0.4294,0.4239,0.4322,0.4365,0.4353,0.4159,0.4216,0.4056,0.4174,0.3942,0.3724,0.4181,0.4001,0.4005,0.4009,0.4012,0.4015,0,0.4289,0.4284,0.4272,0.4189,0.408,0.4126,0.4033,0.3895,0.3754,0.3785,0.3762,0.373,0.3685,0.3758,0.3669,0.3568,0.3333,0.3557,0.3236,0.3223,0.376,0.3621,0.3192,0.3192,0.3192,0.3192,0.3192,0.3192,0.4212,0.4136,0.4122,0.3897,0.3829,0.3599,0.3496,0.3355,0.3302,0.3102,0.302,0.3098,0.3363,0.3486,0.339,0.3297,0.3163,0.2875,0.3074,0.3623,0.368,0.3736,0.3619,0.3196,0.3197,0.2224,0.2218,0.2214]},{"header":{"parameterUnit":"m.s-1","parameterCategory":2,"la1":30.2991,"la2":30.254,"lo1":-89.0895,"lo2":-89.0444,"dy":0.0017,"dx":0.0017,"nx":28,"ny":28,"refTime":"2023-08-15T03:00:00:Z","depth":"0","parameterNumber":3,"parameterNumberName":"V-component_of_CURRENTS"},"data":[0,0,0,0,0,0,0,0,0,0,0,0,0,0,0,0,0,0,0,0,0,0,0,0,0,0,0,0,0,0,0,0,0,0,0,0,0,0,0,0,0,0,0,0,0,0,0,0,0,0,0,0,0,0,0,0,0,0,0.0606,0.0607,0,0.0707,0.0708,0.0709,0.0739,0.0738,0.0737,0.0737,0.0921,0.0927,0.0932,0,0,0,0,0,0,0,0,0,0,0,0,0,0.0478,0.048,0.0606,0.0607,0.0608,0.0706,0.0708,0.0709,0.0739,0.0738,0.0737,0.0736,0.0919,0.0926,0.0933,0,0,0,0,0,0,0,0,0,0,0,0,0,0.0552,0.048,0.0606,0.0634,0.0637,0.0706,0.0708,0.071,0.0739,0.0738,0.0737,0.0736,0.0917,0.0925,0.0933,0.1004,0,0,0.0959,0.0962,0,0,0,0,0,0,0,0,0.0548,0.0557,0.0628,0.0632,0.0636,0.0708,0.073,0.0812,0.0739,0.0702,0.0737,0.0736,0.0858,0.0871,0.0892,0.1013,0.1021,0.0959,0.0965,0.0968,0.097,0,0,0,0,0,0,0,0.0543,0.0553,0.0647,0.063,0.0634,0.0654,0.0664,0.0746,0.0786,0.0705,0.0707,0.0716,0.086,0.0884,0.0897,0.1023,0.0959,0.0967,0.0972,0.0975,0.1256,0.1258,0,0,0,0,0,0,0.0527,0.0548,0.0644,0.065,0.0587,0.0657,0.0668,0.0687,0.0784,0.0797,0.0717,0.0717,0.0871,0.0887,0.0904,0.1023,0.0968,0.0976,0.0981,0.1253,0.1256,0.1259,0,0,0,0,0,0,0.0524,0.0535,0.064,0.0599,0.0614,0.066,0.0681,0.0689,0.0719,0.0792,0.0806,0.0738,0.0871,0.0892,0.0985,0.1029,0.0979,0.0987,0.125,0.1254,0.1258,0.1242,0,0,0,0,0,0,0.052,0.0534,0.0561,0.0599,0.0616,0.0708,0.0683,0.0692,0.0725,0.0727,0.0816,0.0831,0.0871,0.0973,0.0993,0.1039,0.0993,0.1247,0.1252,0.1256,0.124,0.1245,0.125,0,0,0,0,0,0.0516,0.0572,0.0562,0.0574,0.0646,0.0711,0.0723,0.0751,0.0727,0.0768,0.0807,0.0828,0.1017,0.0981,0.1005,0.1054,0.1245,0.1251,0.1256,0.1237,0.1244,0.1249,0,0,0,0,0,0,0.055,0.0581,0.0571,0.0637,0.0674,0.0715,0.0756,0.0757,0.0818,0.0811,0.0861,0.0882,0.098,0.1026,0.0984,0.1152,0.1136,0.1147,0.1114,0.1121,0.1126,0.1167,0.1,0,0,0,0,0,0.0561,0.0608,0.0629,0.069,0.0695,0.0717,0.0748,0.0759,0.0805,0.0829,0.0895,0.0959,0.1025,0.1074,0.115,0.1245,0.1255,0.1295,0.13,0.1304,0.1356,0.1354,0.1362,0.1277,0.1277,0.1277,0,0,0.0596,0.0618,0.0648,0.07,0.0718,0.0784,0.0735,0.0782,0.0856,0.0844,0.0973,0.0985,0.1053,0.1152,0.1201,0.1194,0.1331,0.1311,0.1313,0.1365,0.136,0.1368,0.1375,0.1281,0.128,0.128,0,0,0.07,0.0693,0.0763,0.0792,0.0822,0.0838,0.0848,0.0891,0.0922,0.1016,0.1019,0.1047,0.1186,0.1222,0.1257,0.1343,0.1352,0.1376,0.1444,0.1438,0.1444,0.145,0.1448,0.1454,0.1382,0.1382,0.1382,0,0.0743,0.082,0.08,0.087,0.0911,0.0865,0.0951,0.0985,0.1067,0.1117,0.1067,0.1205,0.1221,0.1329,0.1342,0.1353,0.136,0.1401,0.144,0.1446,0.1452,0.1449,0.1455,0.1382,0.1382,0.1382,0.1382,0,0.0887,0.0949,0.0987,0.1058,0.1108,0.1162,0.1187,0.1243,0.1239,0.1277,0.1363,0.1342,0.1433,0.1412,0.1401,0.1473,0.1466,0.143,0.141,0.1459,0.1453,0.146,0.1382,0.1382,0.1382,0.1382,0,0,0.0975,0.1072,0.1083,0.1138,0.1197,0.125,0.1362,0.1457,0.1542,0.1545,0.1653,0.1657,0.1614,0.1651,0.1607,0.1573,0.1561,0.1528,0.1527,0.1504,0.1565,0.1576,0.1584,0.1524,0.1526,0.1528,0.1533,0,0.1088,0.1235,0.1271,0.1423,0.1485,0.1499,0.1618,0.1696,0.1736,0.1832,0.1759,0.1836,0.1718,0.1722,0.1677,0.1608,0.1586,0.1565,0.1547,0.1548,0.1531,0.1595,0.1415,0.1409,0.154,0.1541,0.1542,0,0.1206,0.1285,0.1439,0.158,0.1611,0.171,0.1857,0.1958,0.2062,0.2095,0.2122,0.2088,0.2067,0.1922,0.1834,0.1831,0.1729,0.1631,0.1629,0.1667,0.1574,0.1391,0.1416,0.1286,0.1552,0.1551,0.1551,0,0.1237,0.1404,0.1522,0.1566,0.1719,0.1812,0.19,0.2037,0.2138,0.2255,0.2317,0.2303,0.2265,0.2152,0.1966,0.1911,0.1848,0.1742,0.1663,0.1661,0.1527,0.1512,0.1411,0.1698,0.1698,0.1698,0.1698,0,0.1325,0.1423,0.1541,0.16,0.1766,0.1857,0.2042,0.2146,0.229,0.2424,0.2434,0.2498,0.2314,0.2252,0.2073,0.192,0.1942,0.1722,0.1682,0.1517,0.1503,0.1401,0.1375,0.1698,0.1698,0.1698,0.1698,0,0.1348,0.1423,0.1558,0.1717,0.1779,0.1889,0.2104,0.2235,0.2372,0.254,0.2577,0.2635,0.2571,0.2407,0.2219,0.2056,0.1827,0.1844,0.1676,0.1619,0.1416,0.1398,0.1378,0.1377,0.1759,0.176,0.176,0,0.1384,0.1449,0.1603,0.1691,0.1771,0.1939,0.2066,0.2248,0.2389,0.2617,0.2692,0.2717,0.2743,0.2528,0.2247,0.2013,0.1865,0.1696,0.1557,0.1436,0.1384,0.1369,0.1369,0.1344,0.1341,0.1338,0.1336,0,0.1441,0.1472,0.1567,0.1725,0.1865,0.2023,0.2213,0.2326,0.2541,0.2695,0.2859,0.2902,0.2744,0.2432,0.216,0.1959,0.1605,0.1644,0.1531,0.1107,0.1069,0.1036,0.1324,0.1315,0.1317,0.1319,0.132,0.1321,0.1459,0.1527,0.1629,0.1788,0.1935,0.209,0.2204,0.2389,0.2588,0.2788,0.2878,0.2914,0.2569,0.2178,0.1927,0.139,0.1531,0.1137,0.1139,0.1148,0.1119,0.1409,0.1359,0.1361,0.1363,0.1365,0.1367,0,0.1475,0.1564,0.1705,0.1871,0.1998,0.2083,0.2295,0.2395,0.2575,0.2733,0.285,0.2702,0.2211,0.1787,0.1133,0.0861,0.0783,0.0737,0.0595,0.0636,0.0848,0.0798,0.0609,0.0609,0.0609,0.0609,0.0609,0.0609,0.1496,0.1606,0.1682,0.1881,0.1996,0.214,0.2236,0.2379,0.2503,0.2624,0.2632,0.2725,0.2579,0.1327,0.0576,0.0423,0.0335,0.0261,0.0399,0.041,0.0444,0.0477,0.0419,0.0154,0.0153,0.0083,0.0082,0.0081]}],[{"header":{"parameterUnit":"m.s-1","parameterCategory":2,"la1":30.2991,"la2":30.254,"lo1":-89.0895,"lo2":-89.0444,"dy":0.0017,"dx":0.0017,"nx":28,"ny":28,"refTime":"2023-08-15T03:00:00:Z","depth":"2","parameterNumber":2,"parameterNumberName":"U-component_of_CURRENTS"},"data":[0,0,0,0,0,0,0,0,0,0,0,0,0,0,0,0,0,0,0,0,0,0,0,0,0,0,0,0,0,0,0,0,0,0,0,0,0,0,0,0,0,0,0,0,0,0,0,0,0,0,0,0,0,0,0,0,0,0,0.3531,0.3533,0,0.3627,0.3627,0.3628,0.3596,0.3594,0.3593,0.3591,0.3716,0.3721,0.3726,0,0,0,0,0,0,0,0,0,0,0,0,0,0.3399,0.3401,0.3531,0.3533,0.3534,0.3627,0.3627,0.3628,0.3596,0.3594,0.3592,0.359,0.3714,0.372,0.3726,0,0,0,0,0,0,0,0,0,0,0,0,0,0.3468,0.3402,0.3531,0.3532,0.3533,0.3626,0.3628,0.3629,0.3597,0.3594,0.3592,0.3589,0.3712,0.372,0.3727,0.3825,0,0,0.375,0.3753,0,0,0,0,0,0,0,0,0.3464,0.3472,0.353,0.3532,0.3534,0.36,0.3627,0.3697,0.3598,0.3569,0.3591,0.3588,0.3685,0.3694,0.3712,0.3831,0.3836,0.375,0.3755,0.3758,0.376,0,0,0,0,0,0,0,0.3459,0.3469,0.3565,0.3532,0.3535,0.3555,0.3561,0.364,0.3638,0.3571,0.357,0.3588,0.3685,0.3705,0.3715,0.3838,0.375,0.3757,0.3761,0.3764,0.4048,0.4051,0,0,0,0,0,0,0.3454,0.3464,0.3562,0.3568,0.3496,0.356,0.3566,0.3578,0.3636,0.3643,0.359,0.3586,0.3693,0.3706,0.3719,0.3882,0.3758,0.3765,0.3769,0.4045,0.4048,0.4052,0,0,0,0,0,0,0.3451,0.3462,0.3558,0.3521,0.3535,0.3564,0.3579,0.3582,0.3612,0.3651,0.3657,0.3618,0.3692,0.3709,0.3847,0.3885,0.3768,0.3775,0.4041,0.4046,0.405,0.4182,0,0,0,0,0,0,0.3447,0.346,0.3498,0.3521,0.3537,0.3625,0.3582,0.3586,0.3628,0.3624,0.3679,0.3686,0.3691,0.3837,0.3855,0.3893,0.3781,0.4037,0.4043,0.4048,0.4173,0.419,0.4204,0,0,0,0,0,0.3442,0.3548,0.3499,0.3513,0.3578,0.3627,0.3638,0.3647,0.3632,0.3661,0.373,0.3685,0.3882,0.3849,0.3868,0.3909,0.4034,0.4041,0.4048,0.4166,0.4187,0.4204,0,0,0,0,0,0,0.3544,0.3554,0.3502,0.3609,0.36,0.3623,0.3694,0.3669,0.3744,0.3771,0.3771,0.3788,0.3915,0.3907,0.3868,0.4003,0.3933,0.3944,0.4015,0.4035,0.405,0.4082,0.3787,0,0,0,0,0,0.3569,0.3651,0.3607,0.3707,0.3694,0.3682,0.3716,0.3712,0.3768,0.3795,0.3813,0.3868,0.396,0.3995,0.4063,0.4166,0.4143,0.4188,0.4204,0.4217,0.4256,0.4264,0.4283,0.4074,0.4074,0.4074,0,0,0.365,0.367,0.3718,0.3734,0.3736,0.3766,0.3698,0.3774,0.3854,0.3808,0.3939,0.3948,0.4008,0.4121,0.4169,0.4118,0.4263,0.4226,0.4237,0.427,0.4273,0.4293,0.4311,0.4079,0.4078,0.4077,0,0,0.3819,0.3837,0.3904,0.3897,0.3903,0.3905,0.3918,0.3911,0.3958,0.4096,0.4066,0.4107,0.4243,0.4248,0.4291,0.4439,0.4363,0.4428,0.4522,0.4529,0.4546,0.456,0.4547,0.4559,0.4413,0.4413,0.4413,0,0.3873,0.3944,0.3941,0.397,0.3993,0.3959,0.3997,0.4079,0.413,0.4174,0.4173,0.4293,0.432,0.4424,0.4472,0.4475,0.4458,0.4445,0.4548,0.4562,0.4575,0.4557,0.4569,0.442,0.442,0.4419,0.4418,0,0.4045,0.4074,0.4131,0.414,0.4185,0.4237,0.4278,0.4333,0.4385,0.442,0.4536,0.456,0.4591,0.4595,0.4617,0.4682,0.4634,0.4581,0.4497,0.4604,0.4578,0.4589,0.4431,0.4428,0.4426,0.4424,0,0,0.415,0.4212,0.4214,0.4186,0.4259,0.4283,0.4466,0.454,0.4607,0.4695,0.4758,0.4902,0.4819,0.4859,0.4794,0.4808,0.488,0.4746,0.4742,0.4727,0.4888,0.437,0.4331,0.4837,0.484,0.4842,0.4828,0,0.4213,0.4268,0.4333,0.4394,0.4381,0.4435,0.4585,0.4691,0.4785,0.4844,0.49,0.4963,0.4955,0.4919,0.4952,0.487,0.4916,0.4889,0.4793,0.4791,0.4312,0.4328,0.4234,0.417,0.4837,0.4839,0.484,0,0.4254,0.4303,0.4362,0.4402,0.4408,0.4493,0.4617,0.4746,0.4894,0.4953,0.5017,0.5042,0.5076,0.5048,0.505,0.5025,0.5015,0.4974,0.4971,0.4453,0.4289,0.4174,0.4162,0.4856,0.4855,0.4854,0.4853,0,0.4183,0.426,0.4309,0.4331,0.4445,0.4517,0.4596,0.4765,0.4841,0.4981,0.4987,0.5083,0.5056,0.5095,0.5043,0.5058,0.5015,0.4999,0.4557,0.4522,0.4401,0.4343,0.5084,0.5084,0.5084,0.5084,0.5084,0,0.4098,0.4123,0.4273,0.4282,0.4375,0.4476,0.4573,0.4673,0.4786,0.4823,0.499,0.499,0.5076,0.5062,0.506,0.4767,0.5029,0.4571,0.447,0.4432,0.4379,0.4948,0.4932,0.5084,0.5084,0.5084,0.5084,0,0.3918,0.4019,0.4107,0.4281,0.4318,0.4397,0.4503,0.4533,0.4677,0.4707,0.4744,0.4901,0.4819,0.4843,0.4841,0.4667,0.4526,0.4408,0.4316,0.4193,0.4051,0.4044,0.3881,0.3862,0.3846,0.3833,0.3822,0,0.3786,0.3804,0.408,0.4129,0.4198,0.4296,0.4322,0.4467,0.4472,0.4621,0.4583,0.4605,0.4504,0.4249,0.4076,0.3873,0.4137,0.3583,0.3542,0.4003,0.3924,0.3942,0.3955,0.3513,0.35,0.349,0.3481,0,0.3568,0.3742,0.3847,0.3974,0.4039,0.4105,0.4139,0.4111,0.4249,0.4233,0.4194,0.415,0.3938,0.3638,0.3334,0.323,0.3564,0.3328,0.393,0.3703,0.3616,0.355,0.3586,0.3389,0.3398,0.3405,0.341,0.3413,0.344,0.3533,0.3708,0.3775,0.3866,0.3888,0.3834,0.3839,0.3796,0.3706,0.37,0.3479,0.3413,0.2773,0.2634,0.2557,0.2731,0.2692,0.2746,0.2807,0.2636,0.2511,0.2052,0.2053,0.2054,0.2056,0.2057,0,0.3293,0.3384,0.3433,0.3581,0.3568,0.3716,0.3669,0.3537,0.3394,0.3298,0.3092,0.2543,0.2301,0.2326,0.2085,0.1872,0.2108,0.1792,0.2256,0.2343,0.2423,0.2255,0.1559,0.1557,0.1554,0.1552,0,0,0.3253,0.3248,0.3287,0.3238,0.3317,0.3255,0.3216,0.3058,0.2922,0.2574,0.2385,0.2167,0.2231,0.1838,0.1758,0.1704,0.203,0.1615,0.2033,0.2679,0.2756,0.2952,0.2782,0,0,0,0,0]},{"header":{"parameterUnit":"m.s-1","parameterCategory":2,"la1":30.2991,"la2":30.254,"lo1":-89.0895,"lo2":-89.0444,"dy":0.0017,"dx":0.0017,"nx":28,"ny":28,"refTime":"2023-08-15T03:00:00:Z","depth":"2","parameterNumber":3,"parameterNumberName":"V-component_of_CURRENTS"},"data":[0,0,0,0,0,0,0,0,0,0,0,0,0,0,0,0,0,0,0,0,0,0,0,0,0,0,0,0,0,0,0,0,0,0,0,0,0,0,0,0,0,0,0,0,0,0,0,0,0,0,0,0,0,0,0,0,0,0,0.0396,0.0398,0,0.0511,0.0511,0.0512,0.054,0.054,0.054,0.054,0.0692,0.0696,0.07,0,0,0,0,0,0,0,0,0,0,0,0,0,0.0242,0.0244,0.0396,0.0398,0.0401,0.0511,0.0511,0.0512,0.054,0.054,0.054,0.054,0.0691,0.0695,0.07,0,0,0,0,0,0,0,0,0,0,0,0,0,0.0319,0.0244,0.0396,0.0435,0.0441,0.0511,0.0511,0.0512,0.054,0.054,0.054,0.0541,0.0689,0.0695,0.0701,0.0732,0,0,0.0719,0.0721,0,0,0,0,0,0,0,0,0.0314,0.0323,0.0427,0.0433,0.0439,0.052,0.0513,0.0591,0.054,0.0492,0.054,0.0541,0.0644,0.0654,0.066,0.0739,0.0746,0.0719,0.0723,0.0725,0.0727,0,0,0,0,0,0,0,0.0309,0.0319,0.0432,0.043,0.0437,0.0462,0.0471,0.0527,0.0558,0.0496,0.0501,0.0529,0.0646,0.0654,0.0664,0.0748,0.0719,0.0724,0.0728,0.073,0.0858,0.0858,0,0,0,0,0,0,0.0312,0.0313,0.0428,0.0436,0.0387,0.0465,0.0475,0.0486,0.0557,0.0571,0.0529,0.053,0.0644,0.0657,0.067,0.0793,0.0725,0.0731,0.0734,0.0858,0.0858,0.0858,0,0,0,0,0,0,0.0308,0.032,0.0424,0.0386,0.0402,0.0468,0.0479,0.0488,0.0512,0.0584,0.0596,0.0546,0.0645,0.0662,0.0755,0.0796,0.0733,0.0739,0.0858,0.0858,0.0858,0.0987,0,0,0,0,0,0,0.0303,0.0318,0.0327,0.0386,0.0405,0.0466,0.048,0.049,0.0533,0.0535,0.0603,0.0616,0.0646,0.0746,0.0761,0.0803,0.0743,0.0859,0.0858,0.0858,0.0983,0.0991,0.0999,0,0,0,0,0,0.0296,0.0332,0.0326,0.0341,0.0414,0.0467,0.0478,0.0519,0.0533,0.054,0.0611,0.0614,0.0752,0.0753,0.077,0.0814,0.0859,0.0858,0.0858,0.098,0.099,0.0998,0,0,0,0,0,0,0.0286,0.034,0.0335,0.0386,0.0416,0.0476,0.0515,0.0526,0.0583,0.0607,0.065,0.067,0.0772,0.0754,0.0753,0.0836,0.0791,0.0794,0.0877,0.0887,0.0895,0.0928,0.0748,0,0,0,0,0,0.0282,0.0325,0.0355,0.0405,0.0417,0.0457,0.0488,0.0513,0.0576,0.0599,0.0636,0.0687,0.0778,0.0803,0.0863,0.0916,0.0872,0.0935,0.0943,0.095,0.0981,0.0899,0.0904,0.0857,0.0857,0.0857,0,0,0.0304,0.034,0.0368,0.0407,0.044,0.0494,0.0475,0.0538,0.0621,0.0613,0.072,0.0743,0.0805,0.0889,0.0923,0.0881,0.0943,0.095,0.0957,0.0984,0.09,0.0905,0.0909,0.0857,0.0857,0.0857,0,0,0.0375,0.0385,0.043,0.0458,0.0511,0.0543,0.0558,0.0597,0.0646,0.0748,0.0774,0.0805,0.0914,0.0942,0.099,0.1059,0.1012,0.1058,0.1113,0.1034,0.1038,0.1041,0.1015,0.1014,0.1031,0.1032,0.1032,0,0.0381,0.0451,0.0454,0.0504,0.0562,0.0567,0.0635,0.0699,0.0766,0.0842,0.0803,0.0938,0.0952,0.1083,0.1096,0.1086,0.1044,0.109,0.1048,0.1049,0.105,0.1022,0.102,0.1038,0.1037,0.1036,0.1036,0,0.0493,0.0534,0.0575,0.0641,0.0692,0.0759,0.0833,0.088,0.0933,0.1009,0.1128,0.1107,0.118,0.1158,0.1174,0.1192,0.1166,0.1095,0.1035,0.1063,0.1031,0.1027,0.1047,0.1044,0.1042,0.1041,0,0,0.0524,0.0622,0.0633,0.0685,0.0772,0.0832,0.0972,0.1108,0.1248,0.1253,0.1387,0.1445,0.1401,0.1438,0.1383,0.1279,0.1236,0.1187,0.118,0.1185,0.11,0.0906,0.0882,0.1149,0.1148,0.1148,0.1086,0,0.0595,0.0696,0.0755,0.0892,0.0944,0.1016,0.1173,0.131,0.1414,0.1532,0.1519,0.1638,0.153,0.1537,0.1431,0.1284,0.1226,0.1262,0.1053,0.1049,0.0889,0.087,0.0906,0.0836,0.1081,0.108,0.1079,0,0.0667,0.0735,0.0861,0.1022,0.1064,0.118,0.1408,0.1556,0.1749,0.1809,0.1863,0.1885,0.1814,0.1673,0.1448,0.1474,0.1333,0.1183,0.1175,0.0949,0.0844,0.0838,0.0817,0.1071,0.1071,0.1072,0.1073,0,0.0663,0.0805,0.0919,0.0972,0.1168,0.1288,0.1425,0.1656,0.1804,0.1979,0.2033,0.2025,0.1967,0.1763,0.1485,0.1474,0.1189,0.1134,0.0859,0.0847,0.0813,0.0795,0.1017,0.1017,0.1017,0.1017,0.1018,0,0.0679,0.0782,0.0941,0.1006,0.1223,0.1358,0.162,0.1748,0.194,0.2109,0.2168,0.2178,0.1971,0.181,0.1553,0.1163,0.1249,0.0881,0.08,0.0856,0.0844,0.0989,0.0987,0.1015,0.1016,0.1016,0.1016,0,0.0644,0.074,0.0921,0.1145,0.1218,0.1406,0.1677,0.1845,0.2021,0.2189,0.2234,0.2269,0.2018,0.1794,0.1452,0.1225,0.0892,0.0767,0.0866,0.0793,0.0613,0.0618,0.0464,0.0457,0.045,0.0445,0.044,0,0.0639,0.0702,0.0984,0.1099,0.1214,0.1465,0.1618,0.1852,0.1985,0.2201,0.2223,0.2149,0.1981,0.1441,0.1098,0.0671,0.0704,0.0477,0.043,0.0611,0.0549,0.0565,0.0578,0.0481,0.0477,0.0474,0.0472,0,0.0638,0.0762,0.0889,0.1099,0.1289,0.1526,0.173,0.1815,0.208,0.2163,0.2182,0.208,0.1656,0.1214,0.0727,0.0468,0.0528,0.0386,0.0558,0.0566,0.0606,0.0551,0.0569,0.0443,0.0446,0.0448,0.045,0.0451,0.0655,0.0762,0.092,0.1113,0.1342,0.1576,0.1732,0.1891,0.2068,0.22,0.2019,0.1838,0.1472,0.0735,0.0399,0.0194,0.0189,0.0121,0.0142,0.0163,0.0125,0.0145,-0.0104,-0.0105,-0.0105,-0.0105,-0.0105,0,0.0672,0.0764,0.09,0.1195,0.1407,0.1575,0.1798,0.1906,0.2068,0.2078,0.1979,0.1422,0.0959,0.0638,0.0276,-0.0044,0.0058,-0.0102,0.0129,0.0155,0.0178,0.0152,-0.0076,-0.0076,-0.0076,-0.0076,0,0,0.0717,0.0801,0.085,0.1175,0.1403,0.1701,0.1846,0.1968,0.1996,0.193,0.182,0.1451,0.0996,0.0696,0.033,0.0181,0.0258,0.0146,0.0145,0.0487,0.0515,0.031,0.0294,0,0,0,0,0]}],[{"header":{"parameterUnit":"m.s-1","parameterCategory":2,"la1":30.2991,"la2":30.254,"lo1":-89.0895,"lo2":-89.0444,"dy":0.0017,"dx":0.0017,"nx":28,"ny":28,"refTime":"2023-08-15T03:00:00:Z","depth":"4","parameterNumber":2,"parameterNumberName":"U-component_of_CURRENTS"},"data":[0,0,0,0,0,0,0,0,0,0,0,0,0,0,0,0,0,0,0,0,0,0,0,0,0,0,0,0,0,0,0,0,0,0,0,0,0,0,0,0,0,0,0,0,0,0,0,0,0,0,0,0,0,0,0,0,0,0,0.1484,0.1485,0,0.1495,0.1495,0.1495,0.1523,0.1524,0.1525,0.1526,0.1497,0.1495,0.1493,0,0,0,0,0,0,0,0,0,0,0,0,0,0.1399,0.14,0.1484,0.1485,0.1485,0.1495,0.1495,0.1495,0.1523,0.1524,0.1525,0.1526,0.1497,0.1495,0.1493,0,0,0,0,0,0,0,0,0,0,0,0,0,0.1422,0.1401,0.1484,0.1504,0.1506,0.1495,0.1495,0.1495,0.1523,0.1524,0.1526,0.1527,0.1498,0.1496,0.1493,0.1448,0,0,0.1485,0.1484,0,0,0,0,0,0,0,0,0.142,0.1424,0.15,0.1502,0.1505,0.1513,0.1455,0.1479,0.1522,0.1512,0.1526,0.1528,0.15,0.1498,0.1491,0.1446,0.1445,0.1485,0.1483,0.1482,0.1482,0,0,0,0,0,0,0,0.1419,0.1423,0.1484,0.1501,0.1504,0.1482,0.1487,0.1459,0.1493,0.1513,0.1516,0.1523,0.1501,0.1493,0.149,0.1445,0.1485,0.1483,0.1481,0.148,0.1585,0.1589,0,0,0,0,0,0,0.1429,0.1423,0.1484,0.1485,0.147,0.1483,0.1488,0.1505,0.1495,0.1496,0.1522,0.1525,0.1497,0.1493,0.1489,0.1631,0.1482,0.148,0.1479,0.1581,0.1586,0.159,0,0,0,0,0,0,0.1428,0.1435,0.1484,0.1457,0.1462,0.1484,0.1502,0.1505,0.1545,0.1503,0.1503,0.1566,0.1498,0.1493,0.1441,0.1623,0.1479,0.1477,0.1575,0.1582,0.1588,0.1788,0,0,0,0,0,0,0.1425,0.1434,0.1421,0.1458,0.1464,0.1494,0.1501,0.1504,0.1547,0.1551,0.1539,0.1535,0.1499,0.1445,0.1439,0.1616,0.1475,0.157,0.1578,0.1586,0.1776,0.18,0.1821,0,0,0,0,0,0.1422,0.1351,0.142,0.1426,0.1455,0.1495,0.1496,0.1512,0.1548,0.1557,0.1516,0.1538,0.1499,0.144,0.1434,0.1617,0.1566,0.1576,0.1585,0.1766,0.1796,0.1821,0,0,0,0,0,0,0.1286,0.1351,0.1425,0.1379,0.1467,0.1502,0.1518,0.1541,0.1523,0.155,0.1503,0.1492,0.1535,0.1521,0.1459,0.1675,0.1575,0.1583,0.1716,0.1743,0.1765,0.17,0.1472,0,0,0,0,0,0.1266,0.1236,0.1355,0.1322,0.1417,0.1497,0.1512,0.155,0.1553,0.1553,0.1552,0.1566,0.1566,0.1599,0.1574,0.1648,0.1535,0.1791,0.1814,0.1833,0.1779,0.1737,0.175,0.1622,0.1622,0.1622,0,0,0.1209,0.1231,0.1221,0.1293,0.1403,0.1442,0.1513,0.1587,0.1562,0.1549,0.154,0.1604,0.1581,0.1659,0.1697,0.1681,0.1812,0.1846,0.1862,0.1795,0.1748,0.176,0.177,0.1629,0.1628,0.1626,0,0,0.1062,0.1159,0.1122,0.1214,0.1362,0.1413,0.1457,0.1581,0.1614,0.1597,0.163,0.1775,0.1734,0.1832,0.1845,0.1977,0.1892,0.2052,0.2163,0.2129,0.2137,0.2142,0.2007,0.1998,0.2117,0.2118,0.2118,0,0.0998,0.0991,0.1116,0.1146,0.1206,0.1412,0.1437,0.1475,0.1526,0.1562,0.1603,0.1731,0.1809,0.1917,0.2034,0.2039,0.193,0.2064,0.2153,0.2156,0.2158,0.2018,0.2006,0.2128,0.2127,0.2126,0.2125,0,0.0876,0.0901,0.0931,0.1027,0.1076,0.117,0.1295,0.1376,0.1475,0.1521,0.1671,0.1807,0.1894,0.2063,0.2085,0.2251,0.2134,0.2142,0.2072,0.2182,0.2028,0.2012,0.2144,0.214,0.2137,0.2134,0,0,0.0711,0.0817,0.0842,0.0912,0.1064,0.1116,0.1135,0.1239,0.131,0.1454,0.1527,0.1768,0.1959,0.1993,0.2187,0.2294,0.2332,0.2272,0.2266,0.2111,0.2143,0.2069,0.2042,0.234,0.2339,0.2338,0.2024,0,0.0641,0.0634,0.0677,0.0722,0.0814,0.0983,0.0976,0.1074,0.121,0.1335,0.1586,0.1719,0.1884,0.207,0.2181,0.228,0.2297,0.2407,0.2076,0.2063,0.1966,0.2027,0.2335,0.2011,0.2007,0.2004,0.2002,0,0.0572,0.0575,0.0585,0.0683,0.0752,0.0767,0.094,0.0965,0.1149,0.125,0.1452,0.1606,0.1844,0.1981,0.2057,0.21,0.2108,0.2174,0.2162,0.1992,0.1961,0.188,0.1971,0.1973,0.1976,0.1978,0.198,0,0.0492,0.0543,0.0543,0.0595,0.0698,0.0746,0.0829,0.0985,0.1072,0.1257,0.1351,0.1528,0.1695,0.1713,0.1866,0.1939,0.1862,0.1949,0.1832,0.182,0.1885,0.1882,0.1898,0.1899,0.1899,0.19,0.1901,0,0.0449,0.0497,0.0543,0.0581,0.0623,0.0729,0.0842,0.0932,0.1118,0.1211,0.136,0.1468,0.1646,0.1657,0.1727,0.1685,0.1684,0.1795,0.1747,0.1978,0.199,0.1871,0.1872,0.1888,0.1891,0.1893,0.1895,0,0.0419,0.0469,0.0479,0.055,0.0604,0.0655,0.0855,0.095,0.1093,0.122,0.1271,0.1406,0.1397,0.1458,0.1504,0.1514,0.1494,0.1457,0.1589,0.1559,0.149,0.1506,0.1274,0.1269,0.1265,0.1262,0.1259,0,0.0392,0.0397,0.042,0.0461,0.0528,0.0651,0.0743,0.0925,0.101,0.1174,0.1196,0.126,0.1318,0.1222,0.1311,0.1232,0.1298,0.1198,0.1485,0.1455,0.1431,0.1454,0.1475,0.1252,0.1251,0.125,0.1249,0,0.0307,0.0321,0.0304,0.0373,0.0471,0.0564,0.0714,0.0765,0.0942,0.1064,0.1134,0.119,0.1151,0.1181,0.1091,0.1088,0.1239,0.1157,0.117,0.144,0.1426,0.1411,0.1437,0.1234,0.1236,0.1237,0.1238,0,0.0219,0.0172,0.0161,0.0253,0.0373,0.0468,0.0555,0.0677,0.0791,0.0983,0.0986,0.1044,0.1134,0.1095,0.1024,0.0988,0.1066,0.1106,0.1124,0.114,0.1265,0.1239,0.0909,0,0,0,0,0,0.0073,0.0065,0.0081,0.0155,0.029,0.0383,0.0525,0.0613,0.0764,0.0798,0.0924,0.0902,0.0928,0.0953,0.0899,0.094,0.1013,0.0874,0.1054,0.1153,0.117,0.1343,0,0,0,0,0,0,-0.0002,-0.0011,-0.0002,0.009,0.0169,0.0304,0.0396,0.0493,0.0536,0.0695,0.0697,0.0858,0.0849,0.0929,0.088,0.0883,0.0987,0.0928,0.0927,0.1143,0.1159,0.1172,0.1357,0,0,0,0,0]},{"header":{"parameterUnit":"m.s-1","parameterCategory":2,"la1":30.2991,"la2":30.254,"lo1":-89.0895,"lo2":-89.0444,"dy":0.0017,"dx":0.0017,"nx":28,"ny":28,"refTime":"2023-08-15T03:00:00:Z","depth":"4","parameterNumber":3,"parameterNumberName":"V-component_of_CURRENTS"},"data":[0,0,0,0,0,0,0,0,0,0,0,0,0,0,0,0,0,0,0,0,0,0,0,0,0,0,0,0,0,0,0,0,0,0,0,0,0,0,0,0,0,0,0,0,0,0,0,0,0,0,0,0,0,0,0,0,0,0,-0.0128,-0.0126,0,-0.0076,-0.0076,-0.0076,-0.0094,-0.0095,-0.0095,-0.0095,-0.0208,-0.021,-0.0213,0,0,0,0,0,0,0,0,0,0,0,0,0,-0.017,-0.0171,-0.0128,-0.0126,-0.0125,-0.0076,-0.0076,-0.0076,-0.0094,-0.0095,-0.0095,-0.0096,-0.0207,-0.021,-0.0213,0,0,0,0,0,0,0,0,0,0,0,0,0,-0.0147,-0.0171,-0.0128,-0.0122,-0.012,-0.0076,-0.0076,-0.0077,-0.0094,-0.0095,-0.0095,-0.0096,-0.0206,-0.021,-0.0214,-0.0227,0,0,-0.0226,-0.0227,0,0,0,0,0,0,0,0,-0.0148,-0.0146,-0.0124,-0.0122,-0.012,-0.0085,-0.0132,-0.0132,-0.0094,-0.0113,-0.0095,-0.0096,-0.0176,-0.0182,-0.0181,-0.0232,-0.0237,-0.0226,-0.0228,-0.023,-0.0231,0,0,0,0,0,0,0,-0.015,-0.0148,-0.0116,-0.0122,-0.012,-0.0096,-0.0095,-0.0132,-0.0152,-0.0111,-0.011,-0.0091,-0.0177,-0.0177,-0.0184,-0.0238,-0.0226,-0.0229,-0.0232,-0.0233,-0.0301,-0.03,0,0,0,0,0,0,-0.0143,-0.015,-0.0117,-0.0113,-0.0126,-0.0095,-0.0094,-0.0103,-0.0147,-0.0151,-0.0091,-0.0092,-0.017,-0.0179,-0.0188,-0.0212,-0.023,-0.0234,-0.0236,-0.0302,-0.0301,-0.03,0,0,0,0,0,0,-0.0144,-0.0141,-0.0119,-0.0122,-0.0117,-0.0093,-0.0103,-0.0101,-0.0095,-0.0128,-0.0137,-0.0085,-0.0171,-0.0183,-0.024,-0.0217,-0.0236,-0.0239,-0.0302,-0.0301,-0.0301,-0.0258,0,0,0,0,0,0,-0.0146,-0.0143,-0.0149,-0.0123,-0.0116,-0.0096,-0.0101,-0.0099,-0.0079,-0.008,-0.0127,-0.0138,-0.0172,-0.0234,-0.0244,-0.0223,-0.0242,-0.0303,-0.0302,-0.0301,-0.026,-0.0255,-0.0252,0,0,0,0,0,-0.0149,-0.0148,-0.0151,-0.0146,-0.0126,-0.0095,-0.0091,-0.008,-0.0078,-0.0078,-0.0123,-0.0136,-0.0232,-0.0238,-0.025,-0.0229,-0.0304,-0.0302,-0.0301,-0.0261,-0.0256,-0.0252,0,0,0,0,0,0,-0.0157,-0.0148,-0.0151,-0.0146,-0.0123,-0.0095,-0.0086,-0.0073,-0.0102,-0.0115,-0.0152,-0.0167,-0.0208,-0.0224,-0.0229,-0.0242,-0.026,-0.0261,-0.0226,-0.0221,-0.0217,-0.0227,-0.0246,0,0,0,0,0,-0.0163,-0.0171,-0.0147,-0.014,-0.0134,-0.011,-0.0095,-0.0086,-0.0097,-0.0108,-0.0141,-0.0175,-0.0209,-0.0222,-0.0266,-0.0278,-0.0301,-0.0263,-0.0259,-0.0256,-0.027,-0.0296,-0.0296,-0.0296,-0.0296,-0.0296,0,0,-0.0159,-0.0155,-0.0156,-0.0143,-0.0131,-0.0126,-0.0106,-0.0083,-0.0103,-0.012,-0.0172,-0.018,-0.0216,-0.0241,-0.0254,-0.025,-0.0262,-0.0254,-0.0251,-0.0268,-0.0295,-0.0295,-0.0295,-0.0295,-0.0295,-0.0295,0,0,-0.0127,-0.0159,-0.0141,-0.0145,-0.0122,-0.0126,-0.0117,-0.0098,-0.0123,-0.0169,-0.0171,-0.0154,-0.024,-0.0214,-0.0226,-0.0218,-0.0256,-0.0229,-0.0202,-0.0225,-0.0226,-0.0227,-0.0233,-0.0235,-0.0207,-0.0207,-0.0207,0,-0.0118,-0.0096,-0.0125,-0.0117,-0.0108,-0.0129,-0.01,-0.015,-0.0155,-0.0174,-0.0199,-0.0223,-0.0224,-0.0206,-0.0196,-0.0205,-0.0243,-0.0217,-0.0221,-0.0223,-0.0225,-0.0231,-0.0233,-0.0205,-0.0205,-0.0205,-0.0205,0,-0.0068,-0.0064,-0.0057,-0.0074,-0.0084,-0.0064,-0.0123,-0.0157,-0.0196,-0.0226,-0.0246,-0.0234,-0.0236,-0.0204,-0.0212,-0.0185,-0.0216,-0.0229,-0.0235,-0.0222,-0.0229,-0.0232,-0.0201,-0.0202,-0.0203,-0.0203,0,0,-0.0023,-0.001,-0.0018,-0.0002,-0.0052,-0.0046,-0.0127,-0.0162,-0.02,-0.0247,-0.0266,-0.0254,-0.0232,-0.0237,-0.0187,-0.0168,-0.0172,-0.0205,-0.0208,-0.0214,-0.0242,-0.0245,-0.0249,-0.0214,-0.0215,-0.0216,-0.0233,0,0.0041,0.0088,0.0065,0.0078,0.0096,0.002,-0.004,-0.0111,-0.0197,-0.0258,-0.026,-0.0276,-0.026,-0.0214,-0.0213,-0.0196,-0.0187,-0.0167,-0.0253,-0.0255,-0.0261,-0.0255,-0.0219,-0.0236,-0.0237,-0.0238,-0.0238,0,0.0075,0.0119,0.017,0.0174,0.0175,0.0152,0.0066,0.0009,-0.0132,-0.018,-0.0223,-0.0278,-0.0248,-0.0243,-0.0245,-0.0255,-0.0257,-0.024,-0.0241,-0.0269,-0.0266,-0.0258,-0.0245,-0.0245,-0.0244,-0.0244,-0.0243,0,0.0113,0.0163,0.022,0.0213,0.0207,0.0198,0.0165,0.0034,-0.0008,-0.0135,-0.0152,-0.0222,-0.0196,-0.0261,-0.0269,-0.0279,-0.0295,-0.0298,-0.0296,-0.0296,-0.0308,-0.0307,-0.0315,-0.0315,-0.0315,-0.0315,-0.0315,0,0.016,0.0193,0.0243,0.0266,0.0308,0.0256,0.0237,0.0176,0.0091,0.0048,-0.0088,-0.0099,-0.0208,-0.0261,-0.0299,-0.0319,-0.033,-0.0302,-0.0308,-0.0284,-0.0281,-0.0309,-0.0308,-0.0315,-0.0315,-0.0315,-0.0315,0,0.0162,0.0202,0.0268,0.0317,0.0323,0.0327,0.0305,0.0274,0.0211,0.0154,0.0128,-0.0005,-0.0093,-0.0196,-0.0263,-0.0299,-0.0338,-0.0332,-0.0294,-0.0296,-0.0318,-0.0314,-0.0357,-0.0357,-0.0358,-0.0358,-0.0358,0,0.0177,0.021,0.0294,0.0324,0.0351,0.0358,0.0351,0.032,0.0292,0.0219,0.0209,0.0098,-0.0009,-0.0113,-0.0227,-0.0342,-0.0333,-0.0346,-0.0344,-0.0325,-0.0326,-0.0322,-0.0318,-0.0359,-0.0359,-0.0359,-0.0359,0,0.021,0.0226,0.029,0.0359,0.0388,0.041,0.0409,0.0407,0.0355,0.0343,0.0264,0.0141,0.0042,-0.0116,-0.0201,-0.0274,-0.0352,-0.0349,-0.0349,-0.0347,-0.0327,-0.0327,-0.0323,-0.036,-0.036,-0.036,-0.036,0,0.0217,0.0258,0.0331,0.0382,0.0421,0.0425,0.0427,0.0411,0.0399,0.0333,0.0309,0.0163,0.0078,-0.0076,-0.016,-0.0252,-0.0266,-0.0261,-0.0265,-0.0265,-0.0244,-0.0205,-0.021,0,0,0,0,0,0.0237,0.028,0.0337,0.0398,0.043,0.0438,0.0449,0.0439,0.0418,0.0379,0.0341,0.0228,0.0054,-0.0033,-0.0126,-0.0172,-0.0286,-0.028,-0.0283,-0.0367,-0.0365,-0.0357,0,0,0,0,0,0,0.0254,0.0314,0.0349,0.0395,0.0406,0.0434,0.0424,0.0408,0.0382,0.035,0.0252,0.023,0.005,0.0099,-0.0125,-0.0155,-0.016,-0.0357,-0.0358,-0.0367,-0.0366,-0.0365,-0.0357,0,0,0,0,0]}]]